Home   Weather   Astrakhan   Past weeks

Flag for Russia Past Weather in Astrakhan, Russia — Yesterday and Last 2 Weeks

Now
43 °F

Partly sunny.


Feels Like: 35 °F
Forecast: 40 / 58 °F
Wind: 15 mph from West

Location: Astrakhan

Current Time: Feb 24, 2017 at 12:18:42 pm

Latest Report: Feb 24, 2017 at 11:30 am


Visibility: N/A

Pressure: 29.89 "Hg

Humidity: 76%

Dew Point: 36 °F

Location of AstrakhanLocation

Past Weather in Astrakhan — Graph

°F

Astrakhan Temperature Yesterday

Maximum temperature yesterday: 46 °F (at 3:00 pm)
Minimum temperature yesterday: 28 °F (at 3:30 am)
Average temperature yesterday: 36 °F

High & Low Weather Summary for the Past Weeks

 TemperatureHumidityPressure
High50 °F (Feb 20, 2:30 pm)93% (Feb 12, 1:00 am)30.63 "Hg (Feb 12, 1:00 am)
Low0 °F (Feb 10, 5:00 am)40% (Feb 20, 3:30 pm)29.71 "Hg (Feb 24, 5:00 am)
Average24 °F78%30.24 "Hg
* Reported Feb 9 11:00 am — Feb 24 11:00 am, Astrakhan, Weather by CustomWeather, © 2017

Note: Actual official high and low records may vary slightly from our data, if they occured in-between our weather recording intervals... More about our weather records

Advertising

Astrakhan Weather History for the Previous 24 Hours

Scroll right to see more
 ConditionsComfort  
Time TempWeatherWind HumidityBarometerVisibility
11:00 am
Fri, Feb 24
43 °FPartly sunny.15 mph81%29.89 "HgN/A
10:30 am41 °FPartly sunny.15 mph81%29.86 "HgN/A
10:00 am41 °FSunny.15 mph87%29.86 "Hg10 mi
9:30 am39 °FSunny.15 mph87%29.83 "Hg10 mi
9:00 am39 °FSunny.15 mph87%29.83 "Hg10 mi
8:30 am37 °FPassing clouds.13 mph93%29.83 "HgN/A
8:00 am37 °FPassing clouds.13 mph93%29.80 "HgN/A
7:30 am39 °FPassing clouds.10 mph87%29.77 "HgN/A
7:00 am39 °FPassing clouds.10 mph87%29.77 "HgN/A
6:30 am39 °FPassing clouds.15 mph93%29.77 "HgN/A
6:00 am39 °FOvercast.15 mph93%29.74 "HgN/A
5:30 am39 °FLight rain. Overcast.17 mph93%29.74 "HgN/A
5:00 am39 °FLight rain. Overcast.17 mph87%29.71 "HgN/A
4:30 am39 °FLight rain. Overcast.17 mph87%29.74 "HgN/A
3:30 am37 °FLight rain. Overcast.13 mph93%29.74 "HgN/A
3:00 am36 °FLight rain. Overcast.10 mph93%29.74 "HgN/A
2:30 am36 °FLight rain. Overcast.10 mph87%29.74 "HgN/A
2:00 am37 °FLight rain. Overcast.10 mph81%29.74 "HgN/A
1:30 am37 °FLight rain. Overcast.10 mph81%29.74 "HgN/A
1:00 am37 °FLight rain. Passing clouds.10 mph75%29.74 "HgN/A
12:30 am37 °FPassing clouds.10 mph70%29.77 "HgN/A
12:00 am37 °FPassing clouds.8 mph65%29.77 "HgN/A
11:30 pm
Thu, Feb 23
37 °FPassing clouds.8 mph65%29.80 "HgN/A
11:00 pm37 °FPassing clouds.6 mph65%29.80 "HgN/A
10:30 pm37 °FChilly.6 mph65%29.80 "HgN/A
10:00 pm37 °FClear.6 mph65%29.83 "Hg10 mi
9:30 pm37 °FClear.6 mph65%29.83 "Hg10 mi
9:00 pm36 °FClear.3 mph70%29.83 "Hg10 mi
8:30 pm34 °FClear.6 mph75%29.86 "Hg10 mi
8:00 pm36 °FClear.6 mph70%29.86 "Hg10 mi
7:30 pm34 °FClear.6 mph70%29.86 "Hg10 mi
7:00 pm37 °FSunny.3 mph65%29.86 "Hg10 mi
6:30 pm39 °FSunny.1 mph61%29.86 "Hg10 mi
6:00 pm41 °FSunny.6 mph57%29.89 "Hg10 mi
5:30 pm45 °FSunny.6 mph49%29.89 "Hg10 mi
5:00 pm45 °FSunny.10 mph49%29.89 "Hg10 mi
4:30 pm45 °FScattered clouds.10 mph53%29.89 "HgN/A
4:00 pm45 °FScattered clouds.10 mph53%29.89 "HgN/A
3:30 pm45 °FScattered clouds.13 mph53%29.89 "HgN/A
3:00 pm46 °FPartly sunny.13 mph57%29.89 "HgN/A
2:30 pm43 °FPartly sunny.8 mph66%29.92 "HgN/A
2:00 pm43 °FPartly sunny.10 mph71%29.92 "HgN/A
1:30 pm43 °FScattered clouds.10 mph71%29.92 "HgN/A
1:00 pm41 °FPartly sunny.10 mph76%29.92 "HgN/A
12:30 pm39 °FPartly sunny.10 mph81%29.92 "HgN/A
12:00 pm37 °FPartly sunny.8 mph87%29.92 "HgN/A
Weather by CustomWeather, © 2017

See weather overviewHow to use our weather pages